Location: Baix
(44.7118°N, 4.7648°E)
Time: 03:02:32
(UTC+00:00)

Cosmos 1354 Rocket - Pass Details

Date: 07 August 2020
Orbit: 765 x 782 km, 74.0° (Epoch: 27 September)

Event Time Altitude Azimuth Distance (km) Brightness Sun altitude
Exits shadow 00:16:35 66° 59° (ENE) 854 4.2 -28.6°
Drops below altitude 10° 00:21:19 10° 24° (NNE) 2,347 7.4 -28.4°
Sets 00:23:43 0° 23° (NNE) 3,279 8.4 -28.4°
